Theta_e
342 339 341 342 339 337 338 337 336 335 337 336 336 335 335 334 335 335 335 333 333 334 333 332 331 331 329 326 324 321 320 321 321 321 322 323 328 334 335 339 340 341 341
342 341 342 336 335 336 337 336 335 335 335 334 332 333 334 334 333 333 333 332 333 333 332 330 331 331 329 326 323 320 321 320 321 319 320 322 324 327 334 337 339 339 339
340 342 341 339 337 336 336 336 336 335 335 334 334 335 334 333 332 332 333 332 332 331 331 331 331 330 329 327 324 321 321 322 320 319 319 321 322 324 327 335 338 339 340
341 341 340 338 336 336 336 336 337 335 335 335 336 334 334 333 333 333 333 333 332 329 328 332 331 330 329 328 327 326 325 324 322 319 319 320 321 323 325 329 336 338 339
342 342 340 338 336 337 337 337 338 336 335 335 335 334 332 333 333 333 330 329 329 329 329 326 328 329 328 328 327 326 326 324 322 320 319 320 321 321 323 325 328 336 338
342 341 339 338 336 336 337 337 337 336 335 336 334 333 333 333 332 331 331 329 327 326 327 326 327 328 327 326 325 323 325 325 324 321 320 321 321 322 322 322 325 331 337
341 339 338 336 336 336 337 337 339 338 337 334 332 334 331 332 331 329 330 328 327 327 327 327 327 327 326 325 324 323 324 323 322 321 321 321 322 322 322 322 323 327 335
337 337 336 336 336 336 337 338 337 337 335 333 333 332 332 333 331 331 328 327 326 326 326 327 327 327 326 325 324 323 321 321 321 321 321 320 320 321 321 321 322 325 330
336 336 336 336 336 336 338 338 338 337 335 334 333 332 333 332 330 329 326 322 324 322 321 323 326 326 325 324 322 321 320 320 319 319 319 320 320 321 321 321 323 326 329
336 338 337 338 338 339 339 338 338 337 335 334 334 327 331 330 329 328 323 324 324 324 324 323 321 324 323 322 322 319 320 318 317 318 319 319 320 321 323 325 322 328 330
338 339 339 339 339 338 338 338 339 336 336 333 328 331 330 330 329 326 324 324 324 323 321 321 321 324 321 321 318 319 319 317 317 317 318 319 320 322 323 325 322 323 330
340 340 340 340 340 339 339 339 338 337 334 329 331 331 329 328 325 324 323 323 321 320 320 321 322 320 320 317 317 318 319 317 317 317 318 319 320 321 320 324 323 323 325
343 342 342 341 340 341 340 338 335 331 330 327 330 330 329 325 322 324 321 318 318 320 320 319 319 318 316 315 315 315 316 315 315 316 318 318 319 321 321 330 327 323 326
327 332 328 326 341 340 337 334 333 332 331 330 328 326 326 324 321 319 317 317 319 317 317 319 318 316 314 313 313 313 313 313 313 313 315 317 318 321 321 321 326 334 333
326 325 323 339 338 337 335 332 330 324 324 324 321 321 320 318 316 316 316 316 316 315 317 318 316 312 311 310 310 309 309 310 312 313 314 315 316 320 321 320 320 321 325
326 327 337 337 337 334 329 326 322 322 320 319 318 318 317 315 313 313 314 315 316 316 315 313 312 311 310 309 308 308 308 308 309 311 312 312 313 317 321 320 320 320 320
338 336 334 331 330 330 324 322 318 316 317 318 315 314 313 312 312 313 315 315 315 314 312 310 309 308 306 305 304 305 304 305 307 308 310 310 311 315 318 320 320 319 320
334 332 330 329 330 330 329 327 324 320 318 317 315 313 312 311 311 312 314 313 311 309 307 305 303 302 301 301 301 302 303 303 303 304 308 308 310 312 315 318 318 320 319
332 330 329 329 327 325 323 322 321 321 320 318 315 313 312 311 310 309 311 309 307 305 304 301 299 298 297 296 298 299 301 301 302 303 303 304 307 310 311 314 314 315 316
328 324 325 327 324 323 322 320 320 318 317 315 313 311 310 310 309 308 308 307 307 307 305 304 302 301 299 297 296 296 298 299 300 300 301 301 304 308 309 309 310 310 312
328 324 324 324 322 321 319 317 317 317 317 313 310 308 308 308 308 307 307 307 307 307 305 304 302 301 299 295 294 293 295 298 298 298 298 299 301 302 306 307 308 308 309
325 322 324 322 321 319 319 318 318 316 315 311 309 307 307 307 306 306 306 306 306 304 302 301 298 296 294 294 291 291 294 296 297 298 298 298 300 300 300 301 305 306 307
323 323 322 321 319 317 317 316 315 315 314 312 310 308 307 307 306 304 306 306 303 300 299 298 297 295 293 292 289 292 294 295 296 297 299 297 298 299 300 300 300 303 304
318 317 314 314 314 313 313 312 311 312 311 309 310 309 307 307 306 304 304 303 300 298 297 297 296 293 291 289 288 292 294 295 296 297 297 297 297 298 298 299 300 300 301
316 315 315 315 314 313 312 310 310 310 308 307 307 306 307 307 306 304 303 300 299 297 296 296 295 294 290 288 288 290 293 295 296 296 295 296 296 296 297 297 299 299 299
314 315 314 313 311 311 309 308 307 308 307 306 306 305 304 303 301 300 299 299 298 297 296 296 295 295 294 290 288 288 290 294 296 295 295 294 295 294 295 296 297 298 297
Wind_Speed
28 25 18 19 17 13 12 8 7 7 6 7 8 10 11 13 14 15 13 12 13 11 12 12 9 11 12 13 13 14 15 14 10 25 28 33 32 32 36 36 36 36 37
28 26 20 19 14 16 15 11 10 9 8 9 10 11 12 15 15 15 17 16 14 14 15 13 12 13 13 14 14 17 18 19 18 21 27 31 33 31 33 34 37 38 39
31 27 25 20 19 18 15 12 11 10 11 11 11 12 14 15 15 18 18 16 16 16 18 16 15 15 18 17 16 19 23 23 25 22 26 29 30 34 31 32 33 38 36
34 32 28 26 23 20 17 15 14 14 12 12 12 14 14 15 16 18 19 17 16 16 17 18 19 19 20 21 21 25 27 26 27 24 23 28 28 31 28 25 28 30 36
38 37 35 29 25 22 19 17 17 16 16 15 14 13 13 15 14 13 12 9 11 14 16 19 22 22 18 20 24 29 29 27 24 21 25 27 27 26 24 26 28 29 31
37 37 35 31 28 23 21 21 21 18 17 15 14 12 13 14 15 15 17 16 13 15 18 19 19 20 21 23 24 26 31 30 28 20 26 26 32 29 30 28 25 25 9
39 37 34 33 29 27 26 23 21 21 18 15 14 12 15 16 14 15 13 16 17 20 18 19 20 23 22 22 23 26 27 27 29 32 30 34 34 34 34 33 29 27 25
37 31 30 29 28 28 27 24 22 20 18 15 17 17 16 16 16 14 14 18 21 20 18 16 19 22 20 21 21 21 25 25 31 32 33 38 39 42 40 38 34 31 31
32 31 30 28 29 28 25 22 21 20 19 18 17 16 17 19 16 14 14 17 18 19 18 17 19 20 18 13 18 20 24 26 31 37 38 46 48 49 44 38 32 27 16
30 35 30 29 27 25 23 24 24 23 23 20 18 13 9 11 12 11 8 13 18 17 17 17 21 17 11 13 17 19 16 24 32 39 44 46 49 39 40 31 37 23 21
34 30 28 27 26 27 27 27 26 24 22 17 13 14 16 13 9 11 10 12 12 13 18 24 22 16 15 13 18 12 14 22 28 38 38 42 44 35 29 20 37 37 23
26 24 24 26 28 30 30 25 25 22 10 13 20 14 14 8 4 6 4 6 9 14 18 20 14 14 10 16 15 13 15 21 28 30 34 40 42 40 37 17 31 37 37
17 17 20 24 27 27 23 18 9 3 3 24 21 11 6 3 1 3 3 9 10 10 10 8 9 3 12 16 16 16 18 23 25 25 28 35 44 39 34 7 19 30 33
32 14 14 14 7 6 7 10 6 5 8 10 2 7 5 7 4 3 8 8 9 10 10 7 5 6 13 16 18 20 21 23 22 23 26 31 36 41 37 36 16 17 26
17 16 15 14 18 18 10 7 8 9 3 2 5 5 6 4 4 7 8 8 6 9 10 13 11 12 17 19 20 22 23 26 28 29 28 31 33 34 37 38 32 25 14
21 23 18 8 10 8 11 8 7 6 5 4 5 3 5 5 5 6 8 8 3 7 12 12 11 12 15 16 16 17 20 24 26 27 28 28 28 26 30 34 31 28 21
14 9 3 6 8 15 17 18 19 11 8 7 9 10 9 9 8 9 9 3 5 12 14 12 11 10 10 11 14 14 18 21 23 24 27 29 28 29 32 31 27 28 31
4 4 8 3 12 17 18 15 15 16 12 9 7 7 8 7 7 8 12 13 17 14 12 10 10 9 9 10 11 15 17 20 24 26 22 23 29 26 25 25 26 22 20
5 3 8 13 17 16 15 14 12 13 11 14 9 5 4 3 7 8 7 14 13 11 10 10 10 11 12 13 13 14 16 19 21 21 21 24 25 25 25 23 26 29 23
4 2 6 11 16 15 12 12 9 6 6 13 10 4 2 2 6 9 10 9 9 6 6 8 8 8 11 13 14 14 15 18 21 22 22 25 27 22 22 22 21 20 23
13 9 14 17 18 13 10 7 5 8 9 16 10 5 7 6 5 4 5 4 3 4 7 5 7 7 8 9 12 10 10 14 18 21 24 26 26 25 22 21 20 21 24
12 7 11 14 12 10 8 8 10 8 18 17 13 10 8 5 2 2 0 2 2 8 8 7 10 11 9 9 12 11 10 13 18 21 23 25 24 25 24 25 22 22 23
8 8 7 7 11 9 6 5 10 9 9 13 17 13 12 8 4 4 5 0 6 7 5 4 3 4 5 6 10 13 14 15 17 18 20 22 24 24 26 22 26 24 23
11 9 9 8 6 6 4 4 2 8 7 5 17 14 14 11 11 5 6 5 8 7 4 2 4 5 3 6 8 11 13 14 16 15 16 19 20 22 25 25 24 27 23
10 11 13 13 14 14 9 7 3 3 8 6 9 9 13 15 14 9 9 7 4 6 7 5 4 6 7 8 8 8 9 10 14 15 16 15 17 21 22 23 24 24 27
12 11 9 6 6 10 8 6 2 3 9 10 8 9 10 8 9 10 8 6 9 8 8 5 3 1 4 10 9 8 5 6 10 12 14 14 16 19 19 18 22 22 24
Wind_Direction
187 196 207 212 208 204 210 228 226 242 253 264 276 287 292 299 305 304 290 294 290 282 273 283 287 277 296 310 321 326 335 324 300 312 309 316 313 285 278 269 262 261 256
187 191 197 189 205 215 210 214 228 237 257 267 278 287 293 293 295 290 284 286 278 285 284 280 274 261 274 294 300 309 313 322 301 307 311 313 311 307 289 276 268 265 263
185 188 192 203 207 206 206 212 229 238 248 264 270 275 280 291 292 290 285 284 282 285 286 279 270 263 266 279 279 294 303 308 309 296 307 306 308 309 307 289 269 267 265
186 191 197 200 205 210 210 216 229 233 254 262 262 274 281 290 293 295 296 287 272 277 279 274 272 271 272 278 276 292 298 299 297 298 304 306 305 303 305 298 279 265 258
187 192 194 204 207 206 209 216 224 235 243 252 263 275 290 292 290 296 308 286 284 277 281 287 281 279 278 278 282 292 294 286 285 289 304 306 304 304 297 295 292 270 256
187 188 198 199 200 209 218 220 226 236 242 250 258 273 281 288 295 302 313 305 297 294 295 303 296 288 287 284 286 294 288 284 279 281 300 296 294 289 287 282 279 280 254
189 189 190 192 197 210 218 218 226 233 233 247 269 269 287 289 293 301 300 302 303 308 303 305 307 301 305 296 299 298 296 300 295 290 291 293 289 287 284 276 264 263 259
174 182 188 192 200 213 217 218 226 234 234 256 263 275 286 290 296 298 301 301 296 293 291 307 308 305 306 303 306 304 308 308 317 304 289 291 288 290 277 265 257 256 265
172 195 195 201 211 216 219 222 228 232 242 246 260 279 282 286 295 291 308 324 309 305 306 319 320 308 313 306 317 318 315 321 328 328 319 315 304 292 286 256 236 235 241
191 207 206 207 213 218 220 224 229 232 246 244 250 274 276 293 296 309 334 332 302 314 327 327 328 317 309 321 325 320 313 330 333 333 327 322 320 300 309 239 219 225 218
205 209 209 211 217 224 229 227 226 235 230 241 263 272 292 316 317 312 310 307 312 318 331 325 326 307 315 332 328 310 307 327 336 341 329 324 328 328 328 233 210 215 225
205 207 212 218 223 228 232 233 223 215 223 328 280 282 289 307 296 320 329 326 318 322 321 318 312 300 330 342 333 317 309 336 344 337 332 333 329 337 334 261 214 214 221
180 201 214 224 229 228 231 217 205 316 301 251 267 259 291 166 129 142 320 310 310 320 317 323 310 344 10 1 2 1 356 355 349 339 333 335 334 341 348 348 223 216 215
347 29 351 314 262 205 148 160 192 221 248 227 134 113 114 144 133 346 334 330 327 328 333 352 172 21 19 12 10 11 8 3 357 340 335 332 341 353 6 14 29 198 207
262 319 292 260 257 248 243 193 228 235 270 149 138 138 115 119 344 341 332 322 328 348 1 82 91 26 18 20 13 11 11 7 1 356 345 346 346 350 9 14 21 31 34
242 249 252 251 262 239 187 158 163 178 159 136 111 116 108 49 21 351 323 307 333 19 94 80 61 43 30 16 6 0 360 2 359 359 353 355 349 348 5 12 16 28 32
211 219 268 262 260 172 161 161 155 154 133 117 114 102 92 70 36 6 336 297 95 108 88 76 63 45 27 14 11 5 4 13 15 2 360 2 359 8 12 12 10 22 28
202 244 262 254 162 152 154 171 162 161 157 143 123 100 85 63 46 24 64 85 83 77 73 63 49 34 37 33 25 18 19 11 13 8 1 3 8 14 13 12 12 10 19
202 167 156 134 120 120 118 103 101 114 116 120 116 103 80 57 73 40 72 81 86 75 67 69 64 54 45 40 32 32 28 24 13 12 10 10 13 15 17 14 11 18 18
222 185 128 145 130 125 122 116 120 130 148 136 137 134 109 103 80 71 70 71 81 82 83 69 43 41 40 36 26 18 25 28 23 24 12 17 24 21 22 21 17 10 16
192 156 139 142 140 143 143 147 175 204 171 149 144 112 109 123 111 99 89 70 76 86 98 65 43 44 45 38 14 14 24 31 31 28 26 27 26 27 29 28 19 20 25
151 151 162 152 167 168 164 189 211 195 162 165 159 143 138 137 130 166 111 79 31 96 97 94 80 66 53 17 22 37 44 44 37 29 25 29 31 32 33 36 33 30 29
177 167 149 158 167 158 177 219 256 227 185 178 170 168 167 165 170 126 172 180 131 99 96 84 91 90 61 26 43 55 59 50 38 35 30 28 32 34 36 36 39 37 36
150 142 151 164 176 197 202 307 120 156 155 112 179 182 178 174 179 156 153 124 120 109 105 107 62 56 61 64 68 66 63 54 45 46 43 39 36 39 38 42 41 42 41
198 195 212 223 223 213 215 229 211 234 161 169 142 133 150 181 182 162 158 153 141 148 147 116 95 47 58 55 55 64 65 55 51 53 44 47 47 43 43 41 42 43 48
317 243 204 232 209 195 165 136 138 177 146 150 157 150 146 146 140 146 145 141 174 159 159 161 209 252 60 51 46 40 70 83 70 62 48 44 49 46 45 44 45 50 49